User: anonymous   Login
Location: Newark
(46.7000°N, 60.6000°W)
Time: 17:23:30
(UTC+00:00)
Language:

Transit 2A Rocket - Orbit

View from above orbital plane
View from above orbital plane
View from above satellite
View from above satellite

Ground track
Ground track

The orbit data is extracted from the following two-line orbital elements,

1 00047U 60007C   21125.91223407 -.00000009  00000-0  23081-4 0  9991
2 00047  66.6679  12.7634 0220577  66.5348 295.8773 14.42148810181173
Epoch (UTC): 05 May 2021 21:53:37
Eccentricity: 0.0220577
inclination: 66.6679°
perigee height: 594 km
apogee height: 908 km
right ascension of ascending node: 12.7634°
argument of perigee: 66.5348°
revolutions per day: 14.42148810
mean anomaly at epoch: 295.8773°
orbit number at epoch: 18117

The dashed part of the orbit path shows where the satellite is in the earth's shadow,  

DLR